This is the latest recevied weather packets stored in our database for station/object KC4MCQ-10. If no packets are shown the sender has not sent any weather packets the latest 10 day(s).
| Time | Temp. | Humidity | Pressure | Rain* | Wind** | Luminosity | Snow |
|---|---|---|---|---|---|---|---|
| 1787872742 | 27.78° C | 86% | 1015.7 hPa | 7.62 mm | 0.45 m/s, 144° | - | - |
| 1787872136 | 27.78° C | 86% | 1015.6 hPa | 7.62 mm | 0.45 m/s, 144° | - | - |
| 1787871535 | 27.78° C | 85% | 1015.5 hPa | 9.65 mm | 0.45 m/s, 163° | - | - |
| 1787870935 | 28.33° C | 84% | 1015.5 hPa | 9.65 mm | 0.89 m/s, 157° | - | - |
| 1787870310 | 28.33° C | 84% | 1015.7 hPa | 9.65 mm | 0.45 m/s, 191° | - | - |
| 1787869706 | 28.89° C | 83% | 1015.5 hPa | 9.65 mm | 0.89 m/s, 172° | - | - |
| 1787869105 | 28.89° C | 82% | 1015.3 hPa | 9.65 mm | 0.89 m/s, 181° | - | - |
| 1787868505 | 28.89° C | 81% | 1015.4 hPa | 9.65 mm | 1.79 m/s, 182° | - | - |
| 1787867878 | 28.89° C | 82% | 1015.1 hPa | 9.65 mm | 0 m/s | - | - |
| 1787867276 | 28.89° C | 80% | 1015.3 hPa | 9.65 mm | 0.45 m/s, 142° | - | - |
| 1787865420 | 28.33° C | 81% | 1015.8 hPa | 9.65 mm | 1.34 m/s, 199° | - | - |
| 1787864819 | 27.78° C | 82% | 1015.6 hPa | 9.65 mm | 0.89 m/s, 157° | - | - |
| 1787864218 | 27.78° C | 82% | 1015.6 hPa | 9.65 mm | 0.45 m/s, 251° | - | - |
| 1787863617 | 27.78° C | 81% | 1015.3 hPa | 9.65 mm | 0.89 m/s, 255° | - | - |
| 1787862958 | 27.78° C | 82% | 1015.3 hPa | 9.65 mm | 0.89 m/s, 218° | - | - |
| 1787862345 | 27.78° C | 82% | 1015.2 hPa | 9.65 mm | 0.45 m/s, 255° | - | - |
| 1787861745 | 27.22° C | 83% | 1015.3 hPa | 9.65 mm | 1.34 m/s, 243° | - | - |
| 1787861127 | 26.67° C | 84% | 1015.6 hPa | 9.65 mm | 0.89 m/s, 217° | - | - |
| 1787860515 | 26.11° C | 85% | 1015.4 hPa | 9.65 mm | 0.89 m/s, 184° | - | - |
| 1787859905 | 26.11° C | 86% | 1015.7 hPa | 9.65 mm | 0 m/s | - | - |
| 1787859304 | 25.56° C | 85% | 1015.8 hPa | 9.65 mm | 2.24 m/s, 225° | - | - |
| 1787858704 | 25.56° C | 86% | 1015.9 hPa | 9.65 mm | 0.89 m/s, 196° | - | - |
| 1787858102 | 25.56° C | 86% | 1016.3 hPa | 9.65 mm | 1.79 m/s, 188° | - | - |
| 1787857499 | 25° C | 87% | 1016.5 hPa | 9.65 mm | 1.34 m/s, 128° | - | - |
| 1787856898 | 25.56° C | 87% | 1017 hPa | 9.65 mm | 0.89 m/s, 148° | - | - |
* Rain latest 24 hours (hover to see other rain measurements)
** Current wind speed in m/s (hover to see current wind gust speed)